Total_Precipitation_Accumulation
0.18 0.19 0.22 0.30 0.40 0.61 0.80 0.70 0.47 0.38 0.35 0.34 0.29 0.28 0.32 0.35 0.42 0.49 0.49 0.50 0.50 0.52 0.42 0.35 0.36 0.33 0.38 0.31 0.28 0.22 0.13 0.08 0.15 0.08 0.01 0.01 0.00 0.00 0.00 0.00 0.00 0.00 0.00
0.12 0.09 0.11 0.20 0.32 0.37 0.41 0.46 0.37 0.23 0.17 0.21 0.20 0.18 0.22 0.28 0.31 0.34 0.40 0.44 0.40 0.38 0.32 0.26 0.29 0.31 0.31 0.28 0.25 0.22 0.16 0.10 0.11 0.08 0.02 0.01 0.00 0.00 0.00 0.00 0.00 0.00 0.00
0.05 0.07 0.08 0.08 0.12 0.13 0.10 0.09 0.12 0.11 0.09 0.11 0.15 0.18 0.21 0.23 0.26 0.27 0.31 0.36 0.35 0.31 0.27 0.22 0.22 0.25 0.34 0.35 0.24 0.20 0.19 0.16 0.12 0.10 0.04 0.01 0.00 0.00 0.00 0.00 0.00 0.00 0.00
0.02 0.04 0.05 0.05 0.05 0.05 0.04 0.03 0.04 0.05 0.05 0.08 0.12 0.18 0.19 0.19 0.23 0.25 0.28 0.32 0.30 0.28 0.26 0.23 0.20 0.17 0.21 0.32 0.28 0.23 0.24 0.19 0.19 0.13 0.05 0.01 0.00 0.00 0.00 0.00 0.00 0.00 0.00
0.02 0.02 0.03 0.04 0.05 0.05 0.05 0.03 0.04 0.05 0.05 0.07 0.11 0.19 0.22 0.23 0.22 0.27 0.29 0.35 0.32 0.28 0.25 0.25 0.23 0.25 0.38 0.40 0.33 0.30 0.29 0.21 0.20 0.15 0.06 0.02 0.00 0.00 0.00 0.00 0.00 0.00 0.00
0.05 0.05 0.07 0.07 0.05 0.05 0.05 0.05 0.04 0.06 0.05 0.06 0.10 0.17 0.23 0.21 0.47 0.50 0.37 0.35 0.33 0.26 0.22 0.21 0.19 0.21 0.35 0.52 0.53 0.47 0.43 0.41 0.31 0.19 0.09 0.03 0.01 0.01 0.00 0.00 0.00 0.00 0.00
0.10 0.09 0.10 0.09 0.08 0.10 0.12 0.09 0.08 0.11 0.10 0.08 0.07 0.08 0.12 0.23 0.27 0.23 0.20 0.20 0.27 0.24 0.19 0.16 0.13 0.12 0.17 0.24 0.30 0.30 0.43 0.61 0.63 0.46 0.23 0.11 0.10 0.05 0.02 0.01 0.00 0.00 0.00
0.13 0.13 0.15 0.14 0.14 0.17 0.15 0.13 0.12 0.11 0.09 0.09 0.09 0.07 0.09 0.11 0.09 0.10 0.12 0.11 0.16 0.18 0.15 0.13 0.12 0.12 0.13 0.19 0.27 0.31 0.35 0.44 0.59 0.55 0.38 0.28 0.21 0.11 0.03 0.01 0.01 0.00 0.00
0.13 0.16 0.20 0.21 0.22 0.21 0.19 0.20 0.19 0.13 0.12 0.11 0.10 0.14 0.15 0.11 0.06 0.04 0.06 0.11 0.13 0.13 0.11 0.11 0.11 0.13 0.18 0.23 0.23 0.25 0.31 0.35 0.50 0.50 0.51 0.44 0.26 0.08 0.02 0.00 0.00 0.00 0.00
0.14 0.18 0.24 0.26 0.28 0.29 0.32 0.32 0.29 0.22 0.17 0.13 0.08 0.11 0.14 0.11 0.06 0.02 0.03 0.09 0.11 0.11 0.11 0.12 0.15 0.18 0.26 0.28 0.27 0.29 0.35 0.29 0.28 0.32 0.32 0.29 0.19 0.07 0.03 0.02 0.01 0.00 0.00
0.09 0.14 0.20 0.27 0.34 0.40 0.43 0.41 0.41 0.35 0.28 0.19 0.15 0.12 0.09 0.10 0.09 0.04 0.03 0.06 0.08 0.10 0.12 0.15 0.15 0.17 0.25 0.34 0.36 0.41 0.49 0.39 0.23 0.23 0.26 0.22 0.13 0.07 0.04 0.03 0.02 0.01 0.00
0.05 0.10 0.16 0.25 0.32 0.39 0.46 0.46 0.44 0.42 0.37 0.32 0.26 0.22 0.18 0.14 0.12 0.10 0.05 0.05 0.06 0.08 0.12 0.15 0.15 0.16 0.17 0.23 0.26 0.35 0.55 0.48 0.24 0.16 0.18 0.19 0.14 0.10 0.08 0.06 0.04 0.03 0.01
0.02 0.05 0.10 0.14 0.18 0.22 0.28 0.35 0.41 0.42 0.39 0.33 0.29 0.30 0.26 0.19 0.16 0.17 0.08 0.05 0.04 0.08 0.10 0.13 0.17 0.18 0.17 0.15 0.19 0.26 0.41 0.51 0.37 0.22 0.14 0.15 0.18 0.18 0.14 0.09 0.06 0.03 0.02
0.01 0.02 0.04 0.05 0.05 0.08 0.16 0.24 0.30 0.35 0.36 0.36 0.34 0.36 0.36 0.28 0.20 0.17 0.12 0.10 0.07 0.06 0.05 0.07 0.10 0.14 0.16 0.15 0.15 0.19 0.30 0.44 0.43 0.32 0.21 0.18 0.22 0.21 0.16 0.11 0.08 0.06 0.03
0.01 0.01 0.01 0.03 0.04 0.07 0.13 0.20 0.24 0.29 0.28 0.28 0.32 0.37 0.34 0.29 0.24 0.26 0.25 0.21 0.16 0.11 0.06 0.05 0.06 0.07 0.10 0.13 0.14 0.15 0.21 0.32 0.36 0.31 0.26 0.20 0.18 0.19 0.17 0.14 0.11 0.08 0.05
0.06 0.02 0.02 0.02 0.04 0.06 0.09 0.10 0.10 0.13 0.11 0.11 0.12 0.15 0.17 0.15 0.14 0.15 0.20 0.23 0.19 0.11 0.09 0.10 0.08 0.07 0.07 0.08 0.10 0.11 0.13 0.18 0.25 0.27 0.27 0.24 0.21 0.22 0.23 0.21 0.17 0.13 0.09
0.14 0.11 0.06 0.04 0.04 0.05 0.04 0.04 0.04 0.04 0.04 0.05 0.05 0.07 0.10 0.11 0.12 0.12 0.14 0.16 0.18 0.15 0.11 0.10 0.07 0.05 0.04 0.05 0.06 0.07 0.10 0.14 0.19 0.23 0.25 0.26 0.25 0.26 0.29 0.30 0.28 0.25 0.21
0.03 0.03 0.04 0.07 0.04 0.03 0.05 0.09 0.11 0.09 0.07 0.05 0.02 0.03 0.05 0.08 0.10 0.10 0.10 0.10 0.10 0.10 0.08 0.09 0.06 0.04 0.03 0.03 0.03 0.04 0.05 0.08 0.13 0.18 0.22 0.24 0.27 0.29 0.31 0.35 0.39 0.38 0.34
0.00 0.01 0.07 0.09 0.04 0.02 0.07 0.13 0.14 0.12 0.10 0.06 0.02 0.01 0.01 0.02 0.03 0.05 0.05 0.05 0.05 0.04 0.05 0.10 0.11 0.09 0.06 0.04 0.03 0.03 0.03 0.03 0.06 0.10 0.16 0.20 0.24 0.27 0.31 0.33 0.35 0.41 0.42
0.02 0.01 0.08 0.13 0.05 0.02 0.03 0.03 0.04 0.05 0.04 0.02 0.02 0.02 0.01 0.01 0.01 0.01 0.02 0.02 0.03 0.02 0.03 0.07 0.09 0.10 0.10 0.08 0.06 0.04 0.03 0.03 0.03 0.05 0.08 0.13 0.17 0.20 0.23 0.29 0.33 0.34 0.35
0.05 0.02 0.02 0.12 0.13 0.06 0.03 0.02 0.03 0.05 0.04 0.03 0.02 0.01 0.01 0.01 0.02 0.02 0.01 0.01 0.01 0.01 0.02 0.03 0.05 0.10 0.09 0.08 0.07 0.07 0.05 0.04 0.04 0.05 0.05 0.06 0.09 0.13 0.15 0.17 0.20 0.23 0.27
0.02 0.02 0.02 0.10 0.14 0.08 0.04 0.03 0.02 0.03 0.03 0.03 0.02 0.01 0.01 0.01 0.02 0.03 0.02 0.03 0.03 0.02 0.02 0.03 0.05 0.08 0.10 0.08 0.07 0.08 0.08 0.06 0.05 0.05 0.07 0.08 0.08 0.07 0.08 0.09 0.10 0.11 0.13
0.01 0.01 0.02 0.05 0.06 0.03 0.02 0.03 0.02 0.03 0.02 0.02 0.01 0.01 0.00 0.00 0.01 0.01 0.02 0.05 0.07 0.08 0.06 0.04 0.06 0.10 0.13 0.13 0.11 0.12 0.12 0.11 0.09 0.07 0.07 0.08 0.09 0.09 0.08 0.08 0.07 0.08 0.09
0.01 0.01 0.01 0.02 0.02 0.02 0.03 0.03 0.03 0.03 0.03 0.02 0.01 0.01 0.00 0.01 0.01 0.01 0.01 0.04 0.08 0.09 0.07 0.06 0.07 0.09 0.12 0.14 0.16 0.16 0.15 0.14 0.11 0.08 0.07 0.08 0.08 0.08 0.09 0.09 0.09 0.09 0.08
0.02 0.01 0.01 0.02 0.02 0.03 0.03 0.04 0.03 0.03 0.04 0.04 0.03 0.01 0.01 0.01 0.01 0.02 0.01 0.02 0.04 0.05 0.05 0.05 0.07 0.11 0.13 0.14 0.16 0.18 0.22 0.21 0.16 0.11 0.09 0.08 0.09 0.10 0.11 0.12 0.13 0.13 0.13
0.02 0.01 0.02 0.03 0.03 0.03 0.04 0.04 0.03 0.03 0.04 0.04 0.03 0.03 0.03 0.02 0.02 0.02 0.02 0.02 0.03 0.03 0.06 0.07 0.08 0.11 0.13 0.13 0.12 0.12 0.14 0.13 0.13 0.12 0.09 0.08 0.09 0.10 0.12 0.14 0.16 0.19 0.21